Location: Chanteloup
(48.8560°N, 2.7390°E)
Time: 14:21:20
(UTC+00:00)

Cosmos 1408 - Pass Details

Date: 24 October 2021
Orbit: 465 x 490 km, 82.6° (Epoch: 15 November)

Event Time Altitude Azimuth Distance (km) Brightness Sun altitude
Rises 19:02:50 0° 344° (NNW) 2,538 6.5 -23.7°
Reaches altitude 10° 19:05:00 10° 337° (NNW) 1,649 5.6 -24.1°
Maximum altitude 19:08:24 40° 266° (W) 703 3.8 -24.6°
Enters shadow 19:09:21 33° 227° (SW) 818 3.9 -24.8°
